アトラス彗星

C/2024 A1 ( ATLAS )

English version
Home page
Updated on September 27, 2024

---------------------------------------------------------------------

・ プロフィール

発見日 2024年1月3日
発見光度 18.8等
発見者 Asteroid Terrestrial-Impact Last Alert System (ATLAS) search program

・ 写真集

・ 軌道要素

Epoch 2024 Mar. 31.0 TT = JDT 2460400.5
T 2025 June 13.66371 TT                                 Rudenko
q   3.8759433            (2000.0)            P               Q
z  -0.0003444      Peri.  353.29364     -0.38264820     +0.02734018
 +/-0.0000021      Node   112.13791     +0.88721140     -0.26798872
e   1.0013348      Incl.   94.44814     +0.25775238     +0.96303404
>From 250 observations 2024 Jan. 3-May 27, mean residual 0".4.

・ 星図

・ 光度変化

        m1 = 6.5 + 5 logΔ + 10.0 log r

---------------------------------------------------------------------

軌道要素はM.P.E.C. 2024-K130に掲載されたものです。
星図はステラナビゲータ Ver.11 (アストロアーツ) で作成したものです。
光度グラフはComet for Windowsで作成したものです。

---------------------------------------------------------------------

Copyright(C) Seiichi Yoshida (comet@aerith.net). All rights reserved.